Weather reports worldwide

Advertisment
Amsterdam Airport, Netherlands (6240): temperature & dewpoint: 06.11.2019 06:00:00 - 12.11.2019 06:00:00 (CET)Amsterdam Airport, Netherlands (6240): temperature 5cm: 06.11.2019 06:00:00 - 12.11.2019 06:00:00 (CET)Amsterdam Airport, Netherlands (6240): wind speed & gusts: 06.11.2019 06:00:00 - 12.11.2019 06:00:00 (CET)Amsterdam Airport, Netherlands (6240): wind direction: 06.11.2019 06:00:00 - 12.11.2019 06:00:00 (CET)Amsterdam Airport, Netherlands (6240): reduced air pressure: 06.11.2019 06:00:00 - 12.11.2019 06:00:00 (CET)Amsterdam Airport, Netherlands (6240): visibility: 06.11.2019 06:00:00 - 12.11.2019 06:00:00 (CET)Amsterdam Airport, Netherlands (6240): precipitation: 06.11.2019 06:00:00 - 12.11.2019 06:00:00 (CET)
Date & Time tt [°C] td [°C] tt 5cm [°C] ff [km/h] ff [kn] fx [km/h] fx [kn] dd ppp [hPa] vv [km] rr [mm]
12.11.2019 06:00:00 5,5 3,1 4,8 31 17 43 23 SSW 998,0 10 0,0
12.11.2019 05:00:00 5,5 3,8 4,8 29 16 43 23 SSW 998,3 10 0,2
12.11.2019 04:00:00 5,4 4,3 4,5 29 16 43 23 S 998,3 10 2,1
12.11.2019 03:00:00 5,2 4,1 4,4 24 13 40 21 S 998,5 10 5,7
12.11.2019 02:00:00 5,1 4,3 4,7 28 15 47 25 SSW 998,6 7 2,4
12.11.2019 01:00:00 5,1 3,6 4,5 29 16 47 25 S 998,5 10 0,5
12.11.2019 00:00:00 5,6 4,0 5,0 34 18 47 25 S 998,9 10 2,0
11.11.2019 23:00:00 6,0 4,5 5,3 22 12 36 19 S 998,5 10 0,1
11.11.2019 22:00:00 6,4 4,5 5,7 18 10 29 16 S 998,6 10 0,2
11.11.2019 21:00:00 7,4 4,4 5,2 15 8 22 12 SSW 998,5 10 0,1
11.11.2019 20:00:00 5,5 4,4 4,9 15 8 25 14 SSE 998,4 10 1,9
11.11.2019 19:00:00 6,2 5,3 5,8 11 6 36 19 SW 998,4 6 6,0
11.11.2019 18:00:00 7,0 5,8 6,4 18 10 36 19 SSW 997,6 5 1,3
11.11.2019 17:00:00 6,7 5,8 6,3 28 15 40 21 SSW 997,0 5 0,5
11.11.2019 16:00:00 6,3 5,0 5,9 31 17 43 23 S 997,1 9 0,1
11.11.2019 15:00:00 6,1 4,5 5,6 35 19 54 29 S 997,9 10 1,0
11.11.2019 14:00:00 6,6 4,5 6,2 35 19 58 31 S 998,8 10 0,1
11.11.2019 13:00:00 7,4 4,0 6,8 31 17 50 27 S 999,6 10 0,0
11.11.2019 12:00:00 7,2 4,5 6,7 28 15 43 23 S 1000,8 10 0,0
11.11.2019 11:00:00 7,1 4,7 6,5 28 15 43 23 S 1001,8 10 0,0
11.11.2019 10:00:00 6,4 4,5 5,9 26 14 40 21 S 1002,8 10 0,0
11.11.2019 09:00:00 5,8 4,3 5,2 26 14 40 21 S 1004,1 10 0,0
11.11.2019 08:00:00 5,0 3,9 4,3 24 13 36 19 SSE 1004,4 10 0,0
11.11.2019 07:00:00 4,2 3,2 3,7 24 13 32 18 SSE 1005,7 10 0,0
11.11.2019 06:00:00 3,8 2,9 3,2 21 11 29 16 SSE 1007,0 9 0,0
11.11.2019 05:00:00 2,9 2,1 2,4 18 10 25 14 SE 1008,0 7 0,0
11.11.2019 04:00:00 3,0 2,1 2,2 13 7 18 10 SSE 1009,6 6 0,0
11.11.2019 03:00:00 2,8 1,8 1,0 9 5 18 10 S 1010,8 7 0,0
11.11.2019 02:00:00 1,8 1,0 0,0 11 6 14 8 SSE 1011,3 8 0,0
11.11.2019 01:00:00 1,7 0,8 -0,6 11 6 14 8 SSE 1012,1 8 0,0
11.11.2019 00:00:00 1,9 1,1 -1,7 9 5 14 8 SSE 1012,6 8 0,0
10.11.2019 23:00:00 1,6 1,1 -0,8 13 7 14 8 SSE 1012,6 10 0,0
10.11.2019 22:00:00 1,9 1,1 -0,8 9 5 14 8 SSE 1013,3 10 0,0
10.11.2019 21:00:00 1,4 0,7 -0,9 5 3 14 8 SSE 1013,7 10 0,0
10.11.2019 20:00:00 2,4 1,1 -0,9 5 3 11 6 SSE 1014,1 10 0,0
10.11.2019 19:00:00 2,8 1,3 -0,5 8 4 11 6 S 1014,5 10 0,0
10.11.2019 18:00:00 3,5 1,5 0,8 9 5 11 6 S 1014,4 10 0,0
10.11.2019 17:00:00 4,9 2,1 3,2 9 5 11 6 S 1014,0 10 0,0
10.11.2019 16:00:00 7,7 3,6 8,0 9 5 11 6 SW 1014,0 10 0,0
10.11.2019 15:00:00 8,5 4,0 9,8 9 5 14 8 SSW 1013,7 10 0,0
10.11.2019 14:00:00 8,5 3,5 10,4 9 5 14 8 S 1013,4 10 0,0
10.11.2019 13:00:00 8,1 4,0 9,9 9 5 14 8 SSW 1013,4 10 0,0
10.11.2019 12:00:00 7,2 3,9 8,8 9 5 11 6 S 1013,3 10 0,0
10.11.2019 11:00:00 5,8 3,6 5,7 11 6 14 8 S 1013,3 10 0,0
10.11.2019 10:00:00 3,4 2,1 1,9 5 3 11 6 SSE 1012,6 8 0,0
10.11.2019 09:00:00 0,9 0,8 -1,5 5 3 7 4 SE 1011,9 6 0,0
10.11.2019 08:00:00 -0,8 -1,2 -2,1 2 1 7 4 E 1010,9 4,0 0,0
10.11.2019 07:00:00 -0,3 -0,5 -1,5 8 4 14 8 SSE 1010,0 5 0,0
10.11.2019 06:00:00 0,6 0,3 -1,2 4 2 14 8 - 1009,6 4,5 0,0
10.11.2019 05:00:00 0,8 0,5 -0,2 9 5 14 8 S 1008,7 5 0,0
10.11.2019 04:00:00 1,1 0,6 -0,6 4 2 14 8 - 1008,3 6 0,0
10.11.2019 03:00:00 1,1 0,8 -0,2 11 6 14 8 S 1007,9 7 0,0
10.11.2019 02:00:00 1,7 1,2 -0,1 11 6 14 8 SSE 1007,6 9 0,0
10.11.2019 01:00:00 2,0 1,3 0,1 9 5 14 8 SSE 1007,3 10 0,0
10.11.2019 00:00:00 2,6 1,7 1,2 11 6 14 8 S 1006,8 10 0,0
09.11.2019 23:00:00 3,6 2,1 2,0 11 6 18 10 S 1006,5 10 0,0
09.11.2019 22:00:00 4,0 2,1 2,6 13 7 22 12 SSW 1006,4 10 0,0
09.11.2019 21:00:00 5,3 3,0 3,8 13 7 22 12 S 1006,0 10 0,0
09.11.2019 20:00:00 5,2 2,9 3,9 16 9 22 12 SSW 1005,7 10 0,0
09.11.2019 19:00:00 5,6 2,6 4,0 16 9 22 12 SW 1005,7 10 0,0
09.11.2019 18:00:00 7,3 3,5 6,1 18 10 29 16 SW 1005,5 10 0,0
09.11.2019 17:00:00 8,2 3,9 7,3 26 14 36 19 WSW 1005,0 10 0,0
09.11.2019 16:00:00 9,3 4,6 8,5 28 15 43 23 WSW 1004,7 10 0,0
09.11.2019 15:00:00 9,8 6,0 9,3 26 14 43 23 WSW 1004,4 10 0,1
09.11.2019 14:00:00 8,8 4,7 7,1 35 19 58 31 WSW 1004,1 10 2,6
09.11.2019 13:00:00 7,7 4,4 6,8 41 22 58 31 W 1004,0 10 1,1
09.11.2019 12:00:00 8,0 4,4 6,9 42 23 61 33 SW 1004,0 10 2,4
09.11.2019 11:00:00 7,7 5,7 6,8 41 22 58 31 SSW 1003,8 7 3,4
09.11.2019 10:00:00 7,6 5,7 7,0 42 23 58 31 SSW 1003,9 5 1,1
09.11.2019 09:00:00 8,3 5,9 7,3 29 16 43 23 SSW 1003,9 10 0,3
09.11.2019 08:00:00 7,8 5,7 6,7 22 12 36 19 S 1004,2 10 0,0
09.11.2019 07:00:00 7,1 6,1 6,2 24 13 32 18 S 1004,3 10 0,2
09.11.2019 06:00:00 6,4 5,7 5,5 22 12 32 18 S 1004,6 8 0,0
09.11.2019 05:00:00 6,4 5,8 5,9 24 13 36 19 S 1004,9 5 0,0
09.11.2019 04:00:00 6,4 6,0 6,0 21 11 29 16 S 1005,4 4,0 0,0
09.11.2019 03:00:00 6,0 5,4 5,2 16 9 22 12 S 1005,5 5 0,0
09.11.2019 02:00:00 6,1 5,5 5,7 16 9 25 14 S 1005,9 4,8 0,0
09.11.2019 01:00:00 5,4 4,9 4,9 15 8 22 12 S 1006,1 5 0,0
09.11.2019 00:00:00 5,5 4,7 4,5 13 7 22 12 SSE 1006,4 9 0,0
08.11.2019 23:00:00 5,2 4,3 4,2 13 7 22 12 SSE 1006,8 10 0,0
08.11.2019 22:00:00 4,6 3,8 3,0 13 7 14 8 SSE 1007,1 10 0,0
08.11.2019 21:00:00 4,4 3,7 2,6 13 7 14 8 SSE 1006,8 10 0,0
08.11.2019 20:00:00 4,8 3,8 2,5 11 6 18 10 SE 1006,6 10 0,0
08.11.2019 19:00:00 4,7 3,9 2,1 11 6 14 8 SE 1006,7 10 0,0
08.11.2019 18:00:00 5,5 4,3 3,2 11 6 14 8 SSE 1006,6 10 0,0
08.11.2019 17:00:00 6,4 4,4 4,9 11 6 18 10 S 1006,4 10 0,0
08.11.2019 16:00:00 8,8 5,1 8,6 15 8 22 12 SSW 1005,9 10 0,0
08.11.2019 15:00:00 9,8 5,5 10,5 15 8 25 14 S 1005,3 10 0,0
08.11.2019 14:00:00 9,7 5,3 10,9 15 8 22 12 S 1005,3 10 0,0
08.11.2019 13:00:00 9,2 5,9 10,7 16 9 22 12 SSE 1005,4 10 0,0
08.11.2019 12:00:00 8,5 5,8 9,7 15 8 18 10 SSW 1005,4 10 0,0
08.11.2019 11:00:00 7,3 4,9 7,7 13 7 22 12 S 1005,5 10 0,0
08.11.2019 10:00:00 5,6 4,0 5,1 13 7 22 12 S 1005,2 10 0,0
08.11.2019 09:00:00 4,1 3,0 3,0 8 4 25 14 S 1005,1 10 0,0
08.11.2019 08:00:00 3,2 2,4 2,0 15 8 22 12 SSE 1004,1 10 0,0
08.11.2019 07:00:00 2,9 2,3 1,6 11 6 18 10 SSE 1003,5 10 0,0
08.11.2019 06:00:00 2,9 2,2 1,8 11 6 22 12 SSE 1003,0 10 0,0
08.11.2019 05:00:00 3,3 2,5 2,3 13 7 25 14 SSE 1002,5 10 0,0
08.11.2019 04:00:00 4,4 3,2 3,2 22 12 29 16 S 1001,9 10 0,0
08.11.2019 03:00:00 4,2 3,2 3,3 21 11 29 16 S 1001,6 10 0,0
08.11.2019 02:00:00 4,2 3,3 3,2 13 7 25 14 S 1001,3 10 0,0
08.11.2019 01:00:00 5,0 3,6 4,0 18 10 29 16 S 1001,1 10 0,0
08.11.2019 00:00:00 5,6 3,9 4,6 22 12 29 16 S 1000,4 10 0,0
07.11.2019 23:00:00 6,2 3,8 5,0 21 11 29 16 S 999,8 10 0,0
07.11.2019 22:00:00 6,7 4,5 5,8 22 12 32 18 S 999,2 10 0,0
07.11.2019 21:00:00 7,4 5,0 6,3 28 15 43 23 SSW 998,5 10 0,0
07.11.2019 20:00:00 7,3 5,4 6,3 26 14 40 21 SSW 997,4 10 0,0
07.11.2019 19:00:00 7,8 5,7 6,5 22 12 32 18 S 996,7 10 0,0
07.11.2019 18:00:00 8,0 6,0 7,0 22 12 32 18 S 995,6 10 0,3
07.11.2019 17:00:00 8,3 6,7 7,7 22 12 32 18 SSW 994,8 10 0,0
07.11.2019 16:00:00 8,5 7,7 8,2 8 4 25 14 SSW 993,4 10 3,2
07.11.2019 15:00:00 8,7 7,6 8,4 21 11 32 18 S 993,0 10 2,8
07.11.2019 14:00:00 9,1 7,7 8,8 18 10 29 16 ESE 993,1 10 1,3
07.11.2019 13:00:00 9,3 8,4 9,1 21 11 29 16 ESE 993,4 9 0,8
07.11.2019 12:00:00 9,3 7,8 9,1 21 11 32 18 ESE 994,0 9 0,1
07.11.2019 11:00:00 9,1 7,5 9,0 21 11 29 16 ESE 994,6 10 0,0
07.11.2019 10:00:00 8,5 7,5 8,1 21 11 29 16 ESE 994,8 9 0,0
07.11.2019 09:00:00 7,9 7,3 7,6 18 10 29 16 ESE 995,5 5 0,0
07.11.2019 08:00:00 7,6 7,0 7,1 16 9 25 14 ESE 995,9 3,5 0,2
07.11.2019 07:00:00 7,6 7,0 7,2 13 7 22 12 ESE 996,4 4,0 0,0
07.11.2019 06:00:00 7,2 6,8 6,9 13 7 18 10 E 997,0 2,5 0,0
07.11.2019 05:00:00 6,9 6,6 6,6 11 6 18 10 ESE 997,8 1,8 0,0
07.11.2019 04:00:00 6,4 6,1 5,2 13 7 18 10 SE 998,1 2,8 0,0
07.11.2019 03:00:00 6,3 5,8 5,4 11 6 14 8 ESE 998,9 7 0,0
07.11.2019 02:00:00 6,5 5,8 5,7 11 6 14 8 ESE 999,6 10 0,0
07.11.2019 01:00:00 6,5 5,6 5,5 11 6 14 8 ESE 1000,1 10 0,0
07.11.2019 00:00:00 6,6 5,3 6,0 9 5 14 8 E 1000,6 10 0,6
06.11.2019 23:00:00 7,1 5,8 6,6 9 5 14 8 E 1001,3 10 0,1
06.11.2019 22:00:00 7,2 5,6 6,2 8 4 11 6 ESE 1001,8 10 0,0
06.11.2019 21:00:00 7,3 5,2 6,4 8 4 11 6 ESE 1002,3 10 0,0
06.11.2019 20:00:00 7,3 4,7 6,1 5 3 7 4 E 1002,5 10 0,0
06.11.2019 19:00:00 7,6 3,9 5,6 8 4 22 12 ENE 1002,8 10 0,0
06.11.2019 18:00:00 7,7 3,2 4,1 2 1 7 4 E 1002,9 10 0,0
06.11.2019 17:00:00 8,5 2,2 5,6 4 2 11 6 - 1002,7 10 0,0
06.11.2019 16:00:00 9,7 3,7 9,7 5 3 18 10 NNW 1002,8 10 0,0
06.11.2019 15:00:00 11,0 3,9 10,9 4 2 11 6 - 1002,8 10 0,0
06.11.2019 14:00:00 10,2 4,6 10,2 5 3 11 6 NNW 1002,9 10 0,0
06.11.2019 13:00:00 10,0 3,8 10,3 8 4 11 6 N 1003,0 10 0,0
06.11.2019 12:00:00 10,2 5,0 11,2 8 4 18 10 NNW 1003,4 10 0,0
06.11.2019 11:00:00 10,0 5,0 9,9 8 4 14 8 N 1003,3 10 0,0
06.11.2019 10:00:00 8,7 5,4 7,7 9 5 22 12 N 1003,0 10 0,0
06.11.2019 09:00:00 8,4 5,9 7,4 8 4 11 6 NNW 1002,8 10 0,0
06.11.2019 08:00:00 8,1 6,3 7,2 5 3 18 10 N 1002,3 10 0,0
06.11.2019 07:00:00 8,3 7,2 7,8 9 5 14 8 NNW 1001,7 10 0,0
06.11.2019 06:00:00 8,3 7,2 7,8 8 4 18 10 N 1001,3 10 0,0

tt = temperature
td = dewpoint
tt 5cm = temperature 5cm
ff = wind speed
fx = gusts
dd = wind direction
ppp = reduced air pressure
vv = visibility
rr = precipitation

Next stations